TimeCST,TemperatureF,Dew PointF,Humidity,Sea Level PressureIn,VisibilityMPH,Wind Direction,Wind SpeedMPH,Gust SpeedMPH,PrecipitationIn,Events,Conditions,WindDirDegrees,DateUTC
12:52 AM,37.9,21.9,53,30.12,10.0,North,11.5,-,N/A,,Clear,350,2011-11-09 06:52:00
1:52 AM,37.0,21.9,54,30.11,10.0,NNW,10.4,-,N/A,,Clear,340,2011-11-09 07:52:00
2:52 AM,37.0,21.9,54,30.10,10.0,North,9.2,-,N/A,,Clear,350,2011-11-09 08:52:00
3:52 AM,36.0,21.9,57,30.11,10.0,NNW,11.5,-,N/A,,Clear,330,2011-11-09 09:52:00
4:52 AM,35.1,21.9,59,30.11,10.0,NNW,10.4,-,N/A,,Clear,340,2011-11-09 10:52:00
5:52 AM,33.1,21.0,61,30.11,10.0,NW,8.1,-,N/A,,Clear,320,2011-11-09 11:52:00
6:52 AM,32.0,21.0,64,30.11,10.0,NW,9.2,-,N/A,,Clear,310,2011-11-09 12:52:00
8:52 AM,34.0,21.9,61,30.11,10.0,NW,11.5,-,N/A,,Clear,320,2011-11-09 14:52:00
9:52 AM,39.9,23.0,51,30.11,10.0,NNW,20.7,-,N/A,,Clear,330,2011-11-09 15:52:00
10:52 AM,45.0,24.1,44,30.11,10.0,NNW,23.0,29.9,N/A,,Clear,330,2011-11-09 16:52:00
11:52 AM,46.9,23.0,39,30.11,10.0,NNW,26.5,31.1,N/A,,Clear,330,2011-11-09 17:52:00
12:52 PM,48.0,21.9,36,30.09,10.0,NNW,24.2,33.4,N/A,,Clear,340,2011-11-09 18:52:00
1:52 PM,48.0,23.0,37,30.09,10.0,WNW,27.6,35.7,N/A,,Clear,300,2011-11-09 19:52:00
2:52 PM,46.9,19.0,33,30.11,10.0,NW,24.2,36.8,N/A,,Clear,320,2011-11-09 20:52:00
3:52 PM,46.0,19.0,34,30.11,10.0,NW,23.0,32.2,N/A,,Clear,310,2011-11-09 21:52:00
4:52 PM,42.1,17.1,37,30.12,10.0,NW,17.3,27.6,N/A,,Clear,310,2011-11-09 22:52:00
5:52 PM,39.9,17.1,40,30.13,10.0,WNW,17.3,-,N/A,,Clear,290,2011-11-09 23:52:00
6:52 PM,37.9,18.0,45,30.14,10.0,NW,17.3,-,N/A,,Partly Cloudy,310,2011-11-10 00:52:00
7:52 PM,37.9,19.0,47,30.14,10.0,NW,19.6,35.7,N/A,,Partly Cloudy,320,2011-11-10 01:52:00
8:52 PM,37.9,19.9,48,30.14,10.0,NW,20.7,-,N/A,,Overcast,310,2011-11-10 02:52:00
9:52 PM,36.0,19.9,52,30.14,10.0,WNW,16.1,-,N/A,,Scattered Clouds,300,2011-11-10 03:52:00
10:52 PM,36.0,21.0,55,30.12,10.0,WNW,19.6,27.6,N/A,,Overcast,300,2011-11-10 04:52:00
11:52 PM,35.1,21.0,57,30.12,10.0,WNW,18.4,-,N/A,,Overcast,300,2011-11-10 05:52:00